Year,Month,Day,Hour,Minute,Value (Times are PST for temperature in C)
2010,07,19,00,00,17.10
2010,07,19,00,01,17.10
2010,07,19,00,02,17.10
2010,07,19,00,03,17.10
2010,07,19,00,04,17.10
2010,07,19,00,05,17.10
2010,07,19,00,06,17.10
2010,07,19,00,07,17.10
2010,07,19,00,08,17.10
2010,07,19,00,09,17.10
2010,07,19,00,10,17.10
2010,07,19,00,11,17.10
2010,07,19,00,12,17.10
2010,07,19,00,13,17.10
2010,07,19,00,14,17.00
2010,07,19,00,15,17.00
2010,07,19,00,16,17.00
2010,07,19,00,17,17.00
2010,07,19,00,18,16.90
2010,07,19,00,19,16.90
2010,07,19,00,20,16.90
2010,07,19,00,21,16.90
2010,07,19,00,22,16.90
2010,07,19,00,23,16.90
2010,07,19,00,24,16.90
2010,07,19,00,25,16.80
2010,07,19,00,26,16.80
2010,07,19,00,27,16.80
2010,07,19,00,28,16.80
2010,07,19,00,29,16.80
2010,07,19,00,30,16.70
2010,07,19,00,31,16.70
2010,07,19,00,32,16.70
2010,07,19,00,33,16.60
2010,07,19,00,34,16.60
2010,07,19,00,35,16.60
2010,07,19,00,36,16.60
2010,07,19,00,37,16.60
2010,07,19,00,38,16.60
2010,07,19,00,39,16.60
2010,07,19,00,40,16.50
2010,07,19,00,41,16.50
2010,07,19,00,42,16.50
2010,07,19,00,43,16.40
2010,07,19,00,44,16.40
2010,07,19,00,45,16.40
2010,07,19,00,46,16.40
2010,07,19,00,47,16.40
2010,07,19,00,48,16.40
2010,07,19,00,49,16.40
2010,07,19,00,50,16.40
2010,07,19,00,51,16.40
2010,07,19,00,52,16.40
2010,07,19,00,53,16.40
2010,07,19,00,54,16.40
2010,07,19,00,55,16.40
2010,07,19,00,56,16.40
2010,07,19,00,57,16.40
2010,07,19,00,58,16.40
2010,07,19,00,59,16.40
2010,07,19,01,00,16.40
2010,07,19,01,01,16.40
2010,07,19,01,02,16.30
2010,07,19,01,03,16.30
2010,07,19,01,04,16.30
2010,07,19,01,05,16.30
2010,07,19,01,06,16.30
2010,07,19,01,07,16.30
2010,07,19,01,08,16.30
2010,07,19,01,09,16.30
2010,07,19,01,10,16.20
2010,07,19,01,11,16.20
2010,07,19,01,12,16.20
2010,07,19,01,13,16.20
2010,07,19,01,14,16.20
2010,07,19,01,15,16.20
2010,07,19,01,16,16.20
2010,07,19,01,17,16.10
2010,07,19,01,18,16.10
2010,07,19,01,19,16.10
2010,07,19,01,20,16.10
2010,07,19,01,21,16.00
2010,07,19,01,22,16.00
2010,07,19,01,23,16.00
2010,07,19,01,24,15.90
2010,07,19,01,25,15.90
2010,07,19,01,26,15.90
2010,07,19,01,27,15.90
2010,07,19,01,28,15.90
2010,07,19,01,29,15.90
2010,07,19,01,30,15.90
2010,07,19,01,31,15.90
2010,07,19,01,32,15.90
2010,07,19,01,33,15.90
2010,07,19,01,34,15.90
2010,07,19,01,35,15.90
2010,07,19,01,36,15.90
2010,07,19,01,37,15.90
2010,07,19,01,38,15.90
2010,07,19,01,39,15.80
2010,07,19,01,40,15.80
2010,07,19,01,41,15.80
2010,07,19,01,42,15.80
2010,07,19,01,43,15.80
2010,07,19,01,44,15.80
2010,07,19,01,45,15.80
2010,07,19,01,46,15.80
2010,07,19,01,47,15.80
2010,07,19,01,48,15.80
2010,07,19,01,49,15.80
2010,07,19,01,50,15.80
2010,07,19,01,51,15.70
2010,07,19,01,52,15.70
2010,07,19,01,53,15.70
2010,07,19,01,54,15.70
2010,07,19,01,55,15.70
2010,07,19,01,56,15.70
2010,07,19,01,57,15.70
2010,07,19,01,58,15.70
2010,07,19,01,59,15.70
2010,07,19,02,00,15.70
2010,07,19,02,01,15.60
2010,07,19,02,02,15.60
2010,07,19,02,03,15.60
2010,07,19,02,04,15.60
2010,07,19,02,05,15.60
2010,07,19,02,06,15.60
2010,07,19,02,07,15.50
2010,07,19,02,08,15.50
2010,07,19,02,09,15.50
2010,07,19,02,10,15.40
2010,07,19,02,11,15.40
2010,07,19,02,12,15.40
2010,07,19,02,13,15.30
2010,07,19,02,14,15.30
2010,07,19,02,15,15.30
2010,07,19,02,16,15.20
2010,07,19,02,17,15.20
2010,07,19,02,18,15.10
2010,07,19,02,19,15.10
2010,07,19,02,20,15.00
2010,07,19,02,21,14.90
2010,07,19,02,22,14.90
2010,07,19,02,23,14.80
2010,07,19,02,24,14.80
2010,07,19,02,25,14.70
2010,07,19,02,26,14.70
2010,07,19,02,27,14.60
2010,07,19,02,28,14.50
2010,07,19,02,29,14.50
2010,07,19,02,30,14.40
2010,07,19,02,31,14.30
2010,07,19,02,32,14.20
2010,07,19,02,33,14.20
2010,07,19,02,34,14.10
2010,07,19,02,35,14.10
2010,07,19,02,36,14.10
2010,07,19,02,37,14.00
2010,07,19,02,38,13.90
2010,07,19,02,39,13.90
2010,07,19,02,40,13.90
2010,07,19,02,41,13.80
2010,07,19,02,42,13.80
2010,07,19,02,43,13.70
2010,07,19,02,44,13.70
2010,07,19,02,45,13.70
2010,07,19,02,46,13.60
2010,07,19,02,47,13.60
2010,07,19,02,48,13.60
2010,07,19,02,49,13.50
2010,07,19,02,50,13.50
2010,07,19,02,51,13.40
2010,07,19,02,52,13.40
2010,07,19,02,53,13.40
2010,07,19,02,54,13.30
2010,07,19,02,55,13.30
2010,07,19,02,56,13.30
2010,07,19,02,57,13.20
2010,07,19,02,58,13.20
2010,07,19,02,59,13.20
2010,07,19,03,00,13.10
2010,07,19,03,06,12.80
2010,07,19,03,07,12.80
2010,07,19,03,08,12.80
2010,07,19,03,09,12.80
2010,07,19,03,10,12.70
2010,07,19,03,11,12.70
2010,07,19,03,12,12.70
2010,07,19,03,13,12.70
2010,07,19,03,14,12.60
2010,07,19,03,15,12.60
2010,07,19,03,16,12.60
2010,07,19,03,17,12.60
2010,07,19,03,18,12.50
2010,07,19,03,19,12.50
2010,07,19,03,20,12.50
2010,07,19,03,21,12.40
2010,07,19,03,22,12.40
2010,07,19,03,23,12.40
2010,07,19,03,24,12.30
2010,07,19,03,25,12.30
2010,07,19,03,26,12.30
2010,07,19,03,27,12.30
2010,07,19,03,28,12.30
2010,07,19,03,29,12.20
2010,07,19,03,30,12.20
2010,07,19,03,31,12.20
2010,07,19,03,32,12.20
2010,07,19,03,33,12.20
2010,07,19,03,34,12.20
2010,07,19,03,35,12.10
2010,07,19,03,36,12.10
2010,07,19,03,37,12.10
2010,07,19,03,38,12.10
2010,07,19,03,39,12.10
2010,07,19,03,40,12.10
2010,07,19,03,41,12.00
2010,07,19,03,42,12.00
2010,07,19,03,43,12.00
2010,07,19,03,44,12.00
2010,07,19,03,45,11.90
2010,07,19,03,46,11.90
2010,07,19,03,47,11.90
2010,07,19,03,48,11.90
2010,07,19,03,49,11.90
2010,07,19,03,50,11.90
2010,07,19,03,51,11.80
2010,07,19,03,52,11.80
2010,07,19,03,53,11.80
2010,07,19,03,54,11.80
2010,07,19,03,55,11.80
2010,07,19,03,56,11.80
2010,07,19,03,57,11.80
2010,07,19,03,58,11.80
2010,07,19,03,59,11.70
2010,07,19,04,00,11.70
2010,07,19,04,01,11.70
2010,07,19,04,02,11.70
2010,07,19,04,03,11.70
2010,07,19,04,04,11.70
2010,07,19,04,05,11.70
2010,07,19,04,06,11.60
2010,07,19,04,07,11.60
2010,07,19,04,08,11.60
2010,07,19,04,09,11.60
2010,07,19,04,10,11.60
2010,07,19,04,11,11.60
2010,07,19,04,12,11.60
2010,07,19,04,13,11.60
2010,07,19,04,14,11.60
2010,07,19,04,15,11.60
2010,07,19,04,16,11.60
2010,07,19,04,17,11.60
2010,07,19,04,18,11.60
2010,07,19,04,19,11.60
2010,07,19,04,20,11.50
2010,07,19,04,21,11.50
2010,07,19,04,22,11.50
2010,07,19,04,23,11.50
2010,07,19,04,24,11.50
2010,07,19,04,25,11.40
2010,07,19,04,26,11.40
2010,07,19,04,27,11.40
2010,07,19,04,28,11.40
2010,07,19,04,29,11.40
2010,07,19,04,30,11.40
2010,07,19,04,31,11.40
2010,07,19,04,32,11.40
2010,07,19,04,33,11.40
2010,07,19,04,34,11.40
2010,07,19,04,35,11.40
2010,07,19,04,36,11.40
2010,07,19,04,37,11.30
2010,07,19,04,38,11.30
2010,07,19,04,39,11.30
2010,07,19,04,40,11.30
2010,07,19,04,41,11.30
2010,07,19,04,42,11.30
2010,07,19,04,43,11.30
2010,07,19,04,44,11.30
2010,07,19,04,45,11.30
2010,07,19,04,46,11.20
2010,07,19,04,47,11.20
2010,07,19,04,48,11.20
2010,07,19,04,49,11.20
2010,07,19,04,50,11.20
2010,07,19,04,51,11.20
2010,07,19,04,52,11.20
2010,07,19,04,53,11.20
2010,07,19,04,54,11.20
2010,07,19,04,55,11.20
2010,07,19,04,56,11.10
2010,07,19,04,57,11.10
2010,07,19,04,58,11.10
2010,07,19,04,59,11.10
2010,07,19,05,00,11.10
2010,07,19,05,01,11.10
2010,07,19,05,02,11.10
2010,07,19,05,03,11.10
2010,07,19,05,04,11.10
2010,07,19,05,05,11.00
2010,07,19,05,06,11.00
2010,07,19,05,07,11.00
2010,07,19,05,08,11.00
2010,07,19,05,09,11.00
2010,07,19,05,10,10.90
2010,07,19,05,11,10.90
2010,07,19,05,12,10.90
2010,07,19,05,13,10.90
2010,07,19,05,14,10.90
2010,07,19,05,15,10.90
2010,07,19,05,16,10.90
2010,07,19,05,17,10.80
2010,07,19,05,18,10.80
2010,07,19,05,19,10.80
2010,07,19,05,20,10.80
2010,07,19,05,21,10.80
2010,07,19,05,22,10.80
2010,07,19,05,23,10.80
2010,07,19,05,24,10.80
2010,07,19,05,25,10.80
2010,07,19,05,26,10.70
2010,07,19,05,27,10.70
2010,07,19,05,28,10.70
2010,07,19,05,29,10.70
2010,07,19,05,30,10.70
2010,07,19,05,31,10.70
2010,07,19,05,32,10.70
2010,07,19,05,33,10.70
2010,07,19,05,34,10.70
2010,07,19,05,35,10.70
2010,07,19,05,36,10.70
2010,07,19,05,37,10.70
2010,07,19,05,38,10.70
2010,07,19,05,39,10.60
2010,07,19,05,40,10.70
2010,07,19,05,41,10.60
2010,07,19,05,42,10.60
2010,07,19,05,43,10.60
2010,07,19,05,44,10.60
2010,07,19,05,45,10.60
2010,07,19,05,46,10.60
2010,07,19,05,47,10.60
2010,07,19,05,48,10.60
2010,07,19,05,49,10.60
2010,07,19,05,50,10.60
2010,07,19,05,51,10.60
2010,07,19,05,52,10.60
2010,07,19,05,53,10.60
2010,07,19,05,54,10.60
2010,07,19,05,55,10.60
2010,07,19,05,56,10.60
2010,07,19,05,57,10.60
2010,07,19,05,58,10.60
2010,07,19,05,59,10.60
2010,07,19,06,00,10.50
2010,07,19,06,01,10.50
2010,07,19,06,02,10.50
2010,07,19,06,03,10.60
2010,07,19,06,04,10.50
2010,07,19,06,05,10.60
2010,07,19,06,06,10.60
2010,07,19,06,07,10.60
2010,07,19,06,08,10.60
2010,07,19,06,09,10.60
2010,07,19,06,10,10.60
2010,07,19,06,11,10.60
2010,07,19,06,12,10.60
2010,07,19,06,13,10.60
2010,07,19,06,14,10.60
2010,07,19,06,15,10.60
2010,07,19,06,16,10.60
2010,07,19,06,17,10.60
2010,07,19,06,18,10.60
2010,07,19,06,19,10.60
2010,07,19,06,20,10.60
2010,07,19,06,21,10.60
2010,07,19,06,22,10.70
2010,07,19,06,23,10.70
2010,07,19,06,24,10.70
2010,07,19,06,25,10.70
2010,07,19,06,26,10.70
2010,07,19,06,27,10.70
2010,07,19,06,28,10.70
2010,07,19,06,29,10.80
2010,07,19,06,30,10.80
2010,07,19,06,31,10.80
2010,07,19,06,32,10.80
2010,07,19,06,33,10.80
2010,07,19,06,34,10.80
2010,07,19,06,35,10.80
2010,07,19,06,36,10.80
2010,07,19,06,37,10.80
2010,07,19,06,38,10.80
2010,07,19,06,39,10.80
2010,07,19,06,40,10.80
2010,07,19,06,41,10.80
2010,07,19,06,42,10.90
2010,07,19,06,43,10.90
2010,07,19,06,44,10.90
2010,07,19,06,45,10.90
2010,07,19,06,46,10.90
2010,07,19,06,47,10.90
2010,07,19,06,48,11.00
2010,07,19,06,49,11.00
2010,07,19,06,50,11.00
2010,07,19,06,51,11.10
2010,07,19,06,52,11.10
2010,07,19,06,53,11.10
2010,07,19,06,54,11.10
2010,07,19,06,55,11.20
2010,07,19,06,56,11.20
2010,07,19,06,57,11.20
2010,07,19,06,58,11.30
2010,07,19,06,59,11.30
2010,07,19,07,00,11.30
2010,07,19,07,01,11.30
2010,07,19,07,02,11.40
2010,07,19,07,03,11.40
2010,07,19,07,04,11.40
2010,07,19,07,05,11.40
2010,07,19,07,06,11.50
2010,07,19,07,07,11.50
2010,07,19,07,08,11.50
2010,07,19,07,09,11.60
2010,07,19,07,10,11.60
2010,07,19,07,11,11.60
2010,07,19,07,12,11.60
2010,07,19,07,13,11.60
2010,07,19,07,14,11.60
2010,07,19,07,15,11.60
2010,07,19,07,16,11.70
2010,07,19,07,17,11.70
2010,07,19,07,18,11.70
2010,07,19,07,19,11.70
2010,07,19,07,20,11.80
2010,07,19,07,21,11.80
2010,07,19,07,22,11.80
2010,07,19,07,23,11.80
2010,07,19,07,24,11.90
2010,07,19,07,25,11.90
2010,07,19,07,26,11.90
2010,07,19,07,27,11.90
2010,07,19,07,28,12.00
2010,07,19,07,29,12.10
2010,07,19,07,30,12.10
2010,07,19,07,31,12.10
2010,07,19,07,32,12.20
2010,07,19,07,33,12.30
2010,07,19,07,34,12.40
2010,07,19,07,35,12.50
2010,07,19,07,36,12.60
2010,07,19,07,37,12.70
2010,07,19,07,38,12.80
2010,07,19,07,39,12.90
2010,07,19,07,40,13.10
2010,07,19,07,41,13.20
2010,07,19,07,42,13.30
2010,07,19,07,43,13.40
2010,07,19,07,44,13.50
2010,07,19,07,45,13.50
2010,07,19,07,46,13.60
2010,07,19,07,47,13.70
2010,07,19,07,48,13.70
2010,07,19,07,49,13.80
2010,07,19,07,50,13.80
2010,07,19,07,51,13.90
2010,07,19,07,52,13.90
2010,07,19,07,53,14.00
2010,07,19,07,54,14.10
2010,07,19,07,55,14.10
2010,07,19,07,56,14.20
2010,07,19,07,57,14.20
2010,07,19,07,58,14.20
2010,07,19,07,59,14.30
2010,07,19,08,00,14.30
2010,07,19,08,01,14.30
2010,07,19,08,02,14.30
2010,07,19,08,03,14.40
2010,07,19,08,04,14.40
2010,07,19,08,05,14.40
2010,07,19,08,06,14.40
2010,07,19,08,07,14.50
2010,07,19,08,08,14.50
2010,07,19,08,09,14.50
2010,07,19,08,10,14.60
2010,07,19,08,11,14.60
2010,07,19,08,12,14.60
2010,07,19,08,13,14.60
2010,07,19,08,14,14.60
2010,07,19,08,15,14.60
2010,07,19,08,16,14.60
2010,07,19,08,17,14.70
2010,07,19,08,18,14.70
2010,07,19,08,19,14.70
2010,07,19,08,20,14.80
2010,07,19,08,21,14.80
2010,07,19,08,22,14.80
2010,07,19,08,23,14.80
2010,07,19,08,24,14.80
2010,07,19,08,25,14.80
2010,07,19,08,26,14.90
2010,07,19,08,27,14.90
2010,07,19,08,28,14.90
2010,07,19,08,29,15.00
2010,07,19,08,30,15.00
2010,07,19,08,31,15.10
2010,07,19,08,32,15.10
2010,07,19,08,33,15.10
2010,07,19,08,34,15.20
2010,07,19,08,35,15.20
2010,07,19,08,36,15.20
2010,07,19,08,37,15.20
2010,07,19,08,38,15.20
2010,07,19,08,39,15.30
2010,07,19,08,40,15.30
2010,07,19,08,41,15.30
2010,07,19,08,42,15.30
2010,07,19,08,43,15.40
2010,07,19,08,44,15.40
2010,07,19,08,45,15.30
2010,07,19,08,46,15.30
2010,07,19,08,47,15.40
2010,07,19,08,48,15.40
2010,07,19,08,49,15.30
2010,07,19,08,50,15.40
2010,07,19,08,51,15.40
2010,07,19,08,52,15.40
2010,07,19,08,53,15.40
2010,07,19,08,54,15.40
2010,07,19,08,55,15.40
2010,07,19,08,56,15.30
2010,07,19,08,57,15.30
2010,07,19,08,58,15.30
2010,07,19,08,59,15.30
2010,07,19,09,00,15.40
2010,07,19,09,01,15.40
2010,07,19,09,02,15.50
2010,07,19,09,03,15.60
2010,07,19,09,04,15.70
2010,07,19,09,05,15.70
2010,07,19,09,06,15.70
2010,07,19,09,07,15.70
2010,07,19,09,08,15.70
2010,07,19,09,09,15.70
2010,07,19,09,10,15.70
2010,07,19,09,11,15.70
2010,07,19,09,12,15.70
2010,07,19,09,13,15.80
2010,07,19,09,14,15.80
2010,07,19,09,15,15.80
2010,07,19,09,16,15.70
2010,07,19,09,17,15.70
2010,07,19,09,18,15.70
2010,07,19,09,19,15.60
2010,07,19,09,20,15.60
2010,07,19,09,21,15.60
2010,07,19,09,22,15.60
2010,07,19,09,23,15.60
2010,07,19,09,24,15.60
2010,07,19,09,25,15.60
2010,07,19,09,26,15.60
2010,07,19,09,27,15.70
2010,07,19,09,28,15.60
2010,07,19,09,29,15.60
2010,07,19,09,30,15.50
2010,07,19,09,31,15.50
2010,07,19,09,32,15.50
2010,07,19,09,33,15.60
2010,07,19,09,34,15.70
2010,07,19,09,35,15.70
2010,07,19,09,36,15.80
2010,07,19,09,37,15.80
2010,07,19,09,38,15.90
2010,07,19,09,39,16.00
2010,07,19,09,40,16.00
2010,07,19,09,41,16.10
2010,07,19,09,42,16.10
2010,07,19,09,43,16.10
2010,07,19,09,44,16.10
2010,07,19,09,45,16.20
2010,07,19,09,46,16.30
2010,07,19,09,47,16.30
2010,07,19,09,48,16.30
2010,07,19,09,49,16.30
2010,07,19,09,50,16.30
2010,07,19,09,51,16.30
2010,07,19,09,52,16.30
2010,07,19,09,53,16.40
2010,07,19,09,54,16.30
2010,07,19,09,55,16.30
2010,07,19,09,56,16.30
2010,07,19,09,57,16.30
2010,07,19,09,58,16.30
2010,07,19,09,59,16.30
2010,07,19,10,00,16.30
2010,07,19,10,01,16.30
2010,07,19,10,02,16.30
2010,07,19,10,03,16.30
2010,07,19,10,04,16.40
2010,07,19,10,05,16.40
2010,07,19,10,06,16.50
2010,07,19,10,07,16.50
2010,07,19,10,08,16.50
2010,07,19,10,09,16.50
2010,07,19,10,10,16.60
2010,07,19,10,11,16.60
2010,07,19,10,12,16.60
2010,07,19,10,13,16.60
2010,07,19,10,14,16.70
2010,07,19,10,15,16.70
2010,07,19,10,16,16.80
2010,07,19,10,17,16.80
2010,07,19,10,18,16.80
2010,07,19,10,19,16.80
2010,07,19,10,20,16.80
2010,07,19,10,21,16.70
2010,07,19,10,22,16.60
2010,07,19,10,23,16.60
2010,07,19,10,24,16.60
2010,07,19,10,25,16.60
2010,07,19,10,26,16.70
2010,07,19,10,27,16.80
2010,07,19,10,28,16.90
2010,07,19,10,29,17.00
2010,07,19,10,30,17.10
2010,07,19,10,31,17.10
2010,07,19,10,32,17.10
2010,07,19,10,33,17.10
2010,07,19,10,34,17.10
2010,07,19,10,35,17.10
2010,07,19,10,36,17.10
2010,07,19,10,37,17.10
2010,07,19,10,38,17.10
2010,07,19,10,39,17.10
2010,07,19,10,40,17.00
2010,07,19,10,41,16.90
2010,07,19,10,42,17.00
2010,07,19,10,43,17.00
2010,07,19,10,44,17.10
2010,07,19,10,45,17.20
2010,07,19,10,46,17.20
2010,07,19,10,47,17.20
2010,07,19,10,48,17.30
2010,07,19,10,49,17.30
2010,07,19,10,50,17.40
2010,07,19,10,51,17.30
2010,07,19,10,52,17.30
2010,07,19,10,53,17.30
2010,07,19,10,54,17.30
2010,07,19,10,55,17.10
2010,07,19,10,56,17.00
2010,07,19,10,57,16.90
2010,07,19,10,58,16.90
2010,07,19,10,59,16.90
2010,07,19,11,00,17.00
2010,07,19,11,01,17.10
2010,07,19,11,02,17.20
2010,07,19,11,03,17.20
2010,07,19,11,04,17.10
2010,07,19,11,05,17.10
2010,07,19,11,06,17.10
2010,07,19,11,07,17.20
2010,07,19,11,08,17.20
2010,07,19,11,09,17.10
2010,07,19,11,10,17.10
2010,07,19,11,11,17.20
2010,07,19,11,12,17.20
2010,07,19,11,13,17.20
2010,07,19,11,14,17.30
2010,07,19,11,15,17.20
2010,07,19,11,16,17.20
2010,07,19,11,17,17.20
2010,07,19,11,18,17.20
2010,07,19,11,19,17.20
2010,07,19,11,20,17.30
2010,07,19,11,21,17.40
2010,07,19,11,22,17.50
2010,07,19,11,23,17.50
2010,07,19,11,24,17.60
2010,07,19,11,25,17.60
2010,07,19,11,26,17.60
2010,07,19,11,27,17.60
2010,07,19,11,28,17.70
2010,07,19,11,29,17.80
2010,07,19,11,30,17.90
2010,07,19,11,31,17.90
2010,07,19,11,32,18.00
2010,07,19,11,33,18.10
2010,07,19,11,34,18.10
2010,07,19,11,35,18.20
2010,07,19,11,36,18.10
2010,07,19,11,37,18.10
2010,07,19,11,38,18.10
2010,07,19,11,39,18.20
2010,07,19,11,40,18.20
2010,07,19,11,41,18.20
2010,07,19,11,42,18.10
2010,07,19,11,43,18.10
2010,07,19,11,44,18.20
2010,07,19,11,45,18.20
2010,07,19,11,46,18.20
2010,07,19,11,47,18.10
2010,07,19,11,48,18.00
2010,07,19,11,49,17.90
2010,07,19,11,50,17.90
2010,07,19,11,51,17.90
2010,07,19,11,52,17.90
2010,07,19,11,53,17.90
2010,07,19,11,54,17.90
2010,07,19,11,55,17.90
2010,07,19,11,56,17.80
2010,07,19,11,57,17.80
2010,07,19,11,58,17.80
2010,07,19,11,59,17.90
2010,07,19,12,00,18.00
2010,07,19,12,01,18.00
2010,07,19,12,02,18.10
2010,07,19,12,03,18.10
2010,07,19,12,04,18.20
2010,07,19,12,05,18.30
2010,07,19,12,06,18.40
2010,07,19,12,07,18.50
2010,07,19,12,08,18.60
2010,07,19,12,09,18.60
2010,07,19,12,10,18.60
2010,07,19,12,11,18.50
2010,07,19,12,12,18.60
2010,07,19,12,13,18.60
2010,07,19,12,14,18.60
2010,07,19,12,15,18.60
2010,07,19,12,16,18.60
2010,07,19,12,17,18.70
2010,07,19,12,18,18.80
2010,07,19,12,19,18.80
2010,07,19,12,20,18.90
2010,07,19,12,21,18.90
2010,07,19,12,22,19.00
2010,07,19,12,23,19.10
2010,07,19,12,24,19.20
2010,07,19,12,25,19.20
2010,07,19,12,26,19.30
2010,07,19,12,27,19.30
2010,07,19,12,28,19.40
2010,07,19,12,29,19.40
2010,07,19,12,30,19.40
2010,07,19,12,31,19.40
2010,07,19,12,32,19.50
2010,07,19,12,33,19.50
2010,07,19,12,34,19.60
2010,07,19,12,35,19.50
2010,07,19,12,36,19.50
2010,07,19,12,37,19.50
2010,07,19,12,38,19.60
2010,07,19,12,39,19.70
2010,07,19,12,40,19.80
2010,07,19,12,41,19.80
2010,07,19,12,42,19.80
2010,07,19,12,43,19.90
2010,07,19,12,44,19.90
2010,07,19,12,45,20.00
2010,07,19,12,46,20.00
2010,07,19,12,47,20.10
2010,07,19,12,48,20.10
2010,07,19,12,49,20.10
2010,07,19,12,50,20.20
2010,07,19,12,51,20.40
2010,07,19,12,52,20.50
2010,07,19,12,53,20.70
2010,07,19,12,54,20.90
2010,07,19,12,55,21.00
2010,07,19,12,56,21.10
2010,07,19,12,57,21.10
2010,07,19,12,58,21.20
2010,07,19,12,59,21.20
2010,07,19,13,00,21.30
2010,07,19,13,01,21.40
2010,07,19,13,02,21.50
2010,07,19,13,03,21.60
2010,07,19,13,04,21.70
2010,07,19,13,05,21.70
2010,07,19,13,06,21.70
2010,07,19,13,07,21.70
2010,07,19,13,08,21.70
2010,07,19,13,09,21.60
2010,07,19,13,10,21.50
2010,07,19,13,11,21.40
2010,07,19,13,12,21.40
2010,07,19,13,13,21.30
2010,07,19,13,14,21.20
2010,07,19,13,15,21.30
2010,07,19,13,16,21.30
2010,07,19,13,17,21.30
2010,07,19,13,18,21.30
2010,07,19,13,19,21.50
2010,07,19,13,20,21.40
2010,07,19,13,21,21.40
2010,07,19,13,22,21.50
2010,07,19,13,23,21.50
2010,07,19,13,24,21.60
2010,07,19,13,25,21.60
2010,07,19,13,26,21.60
2010,07,19,13,27,21.60
2010,07,19,13,28,21.70
2010,07,19,13,29,21.80
2010,07,19,13,30,21.80
2010,07,19,13,31,21.80
2010,07,19,13,32,21.70
2010,07,19,13,33,21.60
2010,07,19,13,34,21.60
2010,07,19,13,35,21.60
2010,07,19,13,36,21.70
2010,07,19,13,37,21.70
2010,07,19,13,38,21.70
2010,07,19,13,39,21.80
2010,07,19,13,40,21.80
2010,07,19,13,41,21.70
2010,07,19,13,42,21.70
2010,07,19,13,43,21.70
2010,07,19,13,44,21.70
2010,07,19,13,45,21.60
2010,07,19,13,46,21.40
2010,07,19,13,47,21.30
2010,07,19,13,48,21.10
2010,07,19,13,49,21.00
2010,07,19,13,50,20.90
2010,07,19,13,51,20.80
2010,07,19,13,52,20.70
2010,07,19,13,53,20.70
2010,07,19,13,54,20.60
2010,07,19,13,55,20.70
2010,07,19,13,56,20.70
2010,07,19,13,57,20.70
2010,07,19,13,58,20.80
2010,07,19,13,59,20.90
2010,07,19,14,00,21.00
2010,07,19,14,01,21.10
2010,07,19,14,02,21.10
2010,07,19,14,03,21.10
2010,07,19,14,04,21.10
2010,07,19,14,05,21.10
2010,07,19,14,06,21.10
2010,07,19,14,07,21.10
2010,07,19,14,08,21.10
2010,07,19,14,09,21.30
2010,07,19,14,10,21.40
2010,07,19,14,11,21.60
2010,07,19,14,12,21.70
2010,07,19,14,13,21.90
2010,07,19,14,14,21.90
2010,07,19,14,15,21.90
2010,07,19,14,16,22.00
2010,07,19,14,17,22.10
2010,07,19,14,18,22.10
2010,07,19,14,19,22.10
2010,07,19,14,20,22.20
2010,07,19,14,21,22.40
2010,07,19,14,22,22.60
2010,07,19,14,23,22.70
2010,07,19,14,24,22.70
2010,07,19,14,25,22.70
2010,07,19,14,26,22.70
2010,07,19,14,27,22.70
2010,07,19,14,28,22.70
2010,07,19,14,29,22.60
2010,07,19,14,30,22.50
2010,07,19,14,31,22.50
2010,07,19,14,32,22.50
2010,07,19,14,33,22.60
2010,07,19,14,34,22.60
2010,07,19,14,35,22.60
2010,07,19,14,36,22.60
2010,07,19,14,37,22.60
2010,07,19,14,38,22.40
2010,07,19,14,39,22.30
2010,07,19,14,40,22.20
2010,07,19,14,41,22.10
2010,07,19,14,42,22.10
2010,07,19,14,43,22.00
2010,07,19,14,44,21.90
2010,07,19,14,45,21.70
2010,07,19,14,46,21.60
2010,07,19,14,47,21.50
2010,07,19,14,48,21.50
2010,07,19,14,49,21.60
2010,07,19,14,50,21.70
2010,07,19,14,51,21.80
2010,07,19,14,52,21.90
2010,07,19,14,53,22.00
2010,07,19,14,54,22.10
2010,07,19,14,55,22.20
2010,07,19,14,56,22.30
2010,07,19,14,57,22.50
2010,07,19,14,58,22.50
2010,07,19,14,59,22.50
2010,07,19,15,00,22.60
2010,07,19,15,01,22.60
2010,07,19,15,02,22.60
2010,07,19,15,03,22.60
2010,07,19,15,04,22.60
2010,07,19,15,05,22.70
2010,07,19,15,06,22.70
2010,07,19,15,07,22.80
2010,07,19,15,08,22.80
2010,07,19,15,09,22.80
2010,07,19,15,10,22.80
2010,07,19,15,11,22.80
2010,07,19,15,12,22.80
2010,07,19,15,13,22.80
2010,07,19,15,14,22.70
2010,07,19,15,15,22.70
2010,07,19,15,16,22.60
2010,07,19,15,17,22.60
2010,07,19,15,18,22.60
2010,07,19,15,19,22.60
2010,07,19,15,20,22.60
2010,07,19,15,21,22.60
2010,07,19,15,22,22.60
2010,07,19,15,23,22.50
2010,07,19,15,24,22.50
2010,07,19,15,25,22.40
2010,07,19,15,26,22.30
2010,07,19,15,27,22.10
2010,07,19,15,28,22.10
2010,07,19,15,29,22.00
2010,07,19,15,30,22.10
2010,07,19,15,31,22.10
2010,07,19,15,32,22.10
2010,07,19,15,33,22.20
2010,07,19,15,34,22.20
2010,07,19,15,35,22.30
2010,07,19,15,36,22.20
2010,07,19,15,37,22.10
2010,07,19,15,38,22.10
2010,07,19,15,39,22.00
2010,07,19,15,40,22.00
2010,07,19,15,41,22.00
2010,07,19,15,42,22.10
2010,07,19,15,43,22.10
2010,07,19,15,44,22.20
2010,07,19,15,45,22.30
2010,07,19,15,46,22.40
2010,07,19,15,47,22.50
2010,07,19,15,48,22.50
2010,07,19,15,49,22.60
2010,07,19,15,50,22.70
2010,07,19,15,51,22.70
2010,07,19,15,52,22.70
2010,07,19,15,53,22.80
2010,07,19,15,54,22.80
2010,07,19,15,55,22.70
2010,07,19,15,56,22.60
2010,07,19,15,57,22.40
2010,07,19,15,58,22.30
2010,07,19,15,59,22.20
2010,07,19,16,00,22.20
2010,07,19,16,01,22.20
2010,07,19,16,02,22.30
2010,07,19,16,03,22.30
2010,07,19,16,04,22.30
2010,07,19,16,05,22.40
2010,07,19,16,06,22.50
2010,07,19,16,07,22.50
2010,07,19,16,08,22.60
2010,07,19,16,09,22.60
2010,07,19,16,10,22.60
2010,07,19,16,11,22.60
2010,07,19,16,12,22.70
2010,07,19,16,13,22.70
2010,07,19,16,14,22.70
2010,07,19,16,15,22.70
2010,07,19,16,16,22.80
2010,07,19,16,17,22.90
2010,07,19,16,18,23.00
2010,07,19,16,19,23.10
2010,07,19,16,20,23.20
2010,07,19,16,21,23.20
2010,07,19,16,22,23.20
2010,07,19,16,23,23.20
2010,07,19,16,24,23.10
2010,07,19,16,25,23.10
2010,07,19,16,26,23.00
2010,07,19,16,27,23.00
2010,07,19,16,28,22.90
2010,07,19,16,29,22.80
2010,07,19,16,30,22.70
2010,07,19,16,31,22.70
2010,07,19,16,32,22.60
2010,07,19,16,33,22.70
2010,07,19,16,34,22.70
2010,07,19,16,35,22.70
2010,07,19,16,36,22.70
2010,07,19,16,37,22.80
2010,07,19,16,38,22.80
2010,07,19,16,39,22.90
2010,07,19,16,40,22.80
2010,07,19,16,41,22.80
2010,07,19,16,42,22.70
2010,07,19,16,43,22.70
2010,07,19,16,44,22.70
2010,07,19,16,45,22.70
2010,07,19,16,46,22.70
2010,07,19,16,47,22.70
2010,07,19,16,48,22.80
2010,07,19,16,49,22.80
2010,07,19,16,50,22.80
2010,07,19,16,51,22.80
2010,07,19,16,52,22.70
2010,07,19,16,53,22.60
2010,07,19,16,54,22.50
2010,07,19,16,55,22.50
2010,07,19,16,56,22.40
2010,07,19,16,57,22.40
2010,07,19,16,58,22.40
2010,07,19,16,59,22.40
2010,07,19,17,00,22.30
2010,07,19,17,01,22.30
2010,07,19,17,02,22.20
2010,07,19,17,03,22.20
2010,07,19,17,04,22.10
2010,07,19,17,05,22.10
2010,07,19,17,06,22.10
2010,07,19,17,07,22.00
2010,07,19,17,08,21.90
2010,07,19,17,09,21.90
2010,07,19,17,10,21.90
2010,07,19,17,11,21.90
2010,07,19,17,12,21.90
2010,07,19,17,13,22.00
2010,07,19,17,14,22.10
2010,07,19,17,15,22.10
2010,07,19,17,16,22.20
2010,07,19,17,17,22.30
2010,07,19,17,18,22.30
2010,07,19,17,19,22.30
2010,07,19,17,20,22.30
2010,07,19,17,21,22.30
2010,07,19,17,22,22.30
2010,07,19,17,23,22.40
2010,07,19,17,24,22.40